DW9677 Weather Reports


Display with metric or nautical units.
time (UTC)temp
F
wind
direction
speed
MPH
gust
MPH
rain 1hr
in
rain 24hr
in
rain mn
in
humidity
%
barometer
mb
20260507071557 55 44 0.0 1.0 0.00 0.37 0.01 77 1013.4
20260507070025 56 44 0.0 0.0 0.00 0.37 0.01 75 1013.3
20260507064523 56 44 0.0 2.0 0.00 0.37 0.01 76 1013.4
20260507063017 54 44 0.0 1.0 0.01 0.37 0.01 37 1013.4
20260507061512 51 44 0.0 0.0 0.01 0.37 0.01 1 1013.3
20260507060006 49 44 0.0 0.0 0.01 0.37 0.01 1 1013.1
20260507054503 48 44 0.0 0.0 0.01 0.38 0.01 1 1013.0
20260507053129 47 44 0.0 0.0 0.00 0.37 0.00 1 1012.9
20260507051604 46 44 0.0 0.0 0.00 0.37 0.00 1 1012.6
20260507050048 46 44 0.0 0.0 0.00 0.37 0.00 1 1012.6
20260507044546 46 44 0.0 0.0 0.00 0.37 0.00 1 1012.4
20260507043042 45 44 0.0 0.0 0.00 0.37 0.00 1 1012.1
20260507041537 45 44 0.0 0.0 0.00 0.37 0.00 1 1012.0
20260507040033 45 44 0.0 0.0 0.00 0.37 0.00 1 1011.9
20260507034535 45 44 0.0 0.0 0.00 0.37 0.00 1 1011.8
20260507033036 45 44 0.0 0.0 0.00 0.37 0.00 1 1011.8
20260507031518 45 44 0.0 0.0 0.00 0.37 0.00 1 1011.8
20260507030014 45 44 0.0 0.0 0.00 0.37 0.00 1 1011.7
20260507024511 45 44 0.0 0.0 0.00 0.37 0.00 1 1011.6
20260507023018 45 44 0.0 0.0 0.00 0.37 0.00 1 1011.6
20260507021502 45 44 0.0 0.0 0.00 0.37 0.00 1 1011.6
20260507020058 45 44 0.0 0.0 0.00 0.37 0.00 1 1011.4
20260507014602 44 44 0.0 0.0 0.00 0.37 0.00 1 1011.3
20260507013051 44 44 0.0 0.0 0.00 0.37 0.00 1 1011.2
20260507011544 44 44 0.0 0.0 0.00 0.37 0.00 1 1011.1
20260507010039 44 44 0.0 0.0 0.00 0.37 0.00 1 1011.2
20260507004539 44 44 0.0 0.0 0.00 0.37 0.00 1 1011.1
20260507003031 44 44 0.0 0.0 0.00 0.37 0.00 1 1011.1
20260507001526 45 44 0.0 0.0 0.00 0.37 0.00 1 1011.2
20260507000023 45 44 0.0 0.0 0.00 0.37 0.00 1 1011.2
20260506234517 46 44 0.0 0.0 0.00 0.37 0.00 1 1011.3
20260506233014 47 44 0.0 0.0 0.00 0.37 0.00 1 1011.3
20260506231509 47 44 0.0 0.0 0.00 0.37 0.00 1 1011.1
20260506230004 47 44 0.0 0.0 0.00 0.37 0.00 1 1011.0
20260506224600 47 44 0.0 0.0 0.00 0.37 0.00 2 1011.1
20260506223105 47 44 0.0 0.0 0.00 0.37 0.00 6 1011.0
20260506221551 47 44 0.0 0.0 0.00 0.37 0.00 6 1011.0
20260506220049 47 44 0.0 0.0 0.00 0.37 0.00 8 1010.9
20260506214551 47 44 0.0 0.0 0.00 0.42 0.37 5 1010.8
20260506213041 47 44 0.0 0.0 0.00 0.42 0.37 1 1010.6
20260506211540 48 44 0.0 1.0 0.00 0.42 0.37 1 1010.6
20260506210035 48 44 0.0 0.0 0.00 0.42 0.37 2 1010.5
20260506204530 48 44 0.0 0.0 0.01 0.62 0.37 3 1010.6
20260506203029 48 44 0.0 0.0 0.01 0.62 0.37 6 1010.4
20260506201522 48 44 0.0 1.0 0.01 0.62 0.37 10 1010.1
20260506200021 48 44 0.0 0.0 0.01 0.62 0.37 15 1009.8
20260506194513 48 44 0.0 0.0 0.00 0.80 0.36 21 1009.8
20260506193008 48 44 0.0 0.0 0.00 0.80 0.36 31 1009.8
20260506191505 48 44 0.0 1.0 0.00 0.80 0.36 40 1009.8
20260506190100 49 44 0.0 0.0 0.00 0.80 0.36 40 1009.4
20260506184555 49 44 0.0 1.0 0.00 0.80 0.36 36 1009.3
20260506183056 49 44 0.0 0.0 0.00 0.80 0.36 37 1008.9
20260506181556 49 44 0.0 1.0 0.00 0.80 0.36 45 1008.5
20260506180103 49 44 0.0 3.0 0.00 0.80 0.36 49 1008.2
20260506174539 50 44 0.0 0.0 0.00 0.80 0.36 54 1008.0
20260506173040 51 44 0.0 3.0 0.00 0.80 0.36 59 1007.6
20260506171529 52 44 0.0 1.0 0.00 0.80 0.36 62 1007.4
20260506170013 53 44 0.0 6.0 0.00 0.80 0.36 63 1007.0
20260506164510 56 44 0.0 7.0 0.00 0.80 0.36 17 1006.7
20260506163010 56 44 0.0 0.0 0.00 0.80 0.36 16 1006.1
20260506161600 56 44 0.0 1.0 0.00 0.80 0.36 26 1005.9
20260506160056 56 44 0.0 0.0 0.00 0.80 0.36 35 1005.6
20260506154552 56 44 0.0 0.0 0.01 0.80 0.36 49 1005.7
20260506153035 56 44 0.0 0.0 0.02 0.80 0.36 25 1005.4
20260506151532 56 44 0.0 0.0 0.15 0.80 0.36 1 1005.2
20260506150018 54 44 0.0 1.0 0.35 0.80 0.36 1 1004.6
20260506144519 53 44 0.0 0.0 0.34 0.80 0.35 17 1005.7
20260506143013 54 44 0.0 2.0 0.33 0.79 0.34 60 1005.8
20260506141504 58 44 0.0 12.0 0.17 0.63 0.18 77 1004.5
20260506140100 63 44 0.0 0.0 0.00 0.46 0.01 70 1002.8
20260506140000 64 44 0.0 0.0 0.00 0.46 0.01 71 1002.7
20260506134601 65 44 0.0 0.0 0.00 0.46 0.01 68 1003.2
20260506133057 65 44 0.0 1.0 0.00 0.46 0.01 63 1003.3
20260506131546 65 44 0.0 2.0 0.00 0.46 0.01 64 1003.4
20260506130042 64 44 0.0 1.0 0.00 0.46 0.01 65 1003.5
20260506124540 64 44 0.0 1.0 0.00 0.46 0.01 64 1003.7
20260506123032 64 44 0.0 1.0 0.00 0.46 0.01 64 1003.8
20260506121529 64 44 0.0 1.0 0.00 0.46 0.01 67 1004.0
20260506120029 65 44 0.0 2.0 0.00 0.46 0.01 65 1004.1
20260506114522 65 44 0.0 2.0 0.00 0.46 0.01 65 1004.2
20260506113015 64 44 0.0 1.0 0.00 0.46 0.01 69 1004.4
20260506111510 63 44 0.0 1.0 0.00 0.46 0.01 67 1004.7
20260506110007 63 44 0.0 0.0 0.00 0.46 0.01 69 1004.8
20260506104503 62 44 0.0 1.0 0.00 0.46 0.01 72 1004.9
20260506103057 62 44 0.0 0.0 0.00 0.46 0.01 75 1005.4
20260506101553 61 44 0.0 0.0 0.00 0.46 0.01 73 1005.5
20260506100051 60 44 0.0 1.0 0.00 0.46 0.01 73 1005.4
20260506094555 60 44 0.0 1.0 0.00 0.46 0.01 72 1005.5
20260506093042 61 44 0.0 0.0 0.00 0.46 0.01 72 1005.7
20260506091535 61 44 0.0 0.0 0.00 0.46 0.01 74 1005.8
20260506090031 61 44 0.0 1.0 0.00 0.46 0.01 73 1005.7
20260506084534 60 44 0.0 0.0 0.00 0.46 0.01 75 1005.6
20260506083023 60 44 0.0 0.0 0.00 0.46 0.01 76 1005.8
20260506081521 61 44 0.0 1.0 0.00 0.46 0.01 74 1005.8
20260506073005 61 44 0.0 0.0 0.00 0.46 0.01 74 1006.2